Location: Bratislava
(0.0000°N, 17.1167°E)
Time: 04:24:06
(UTC+01:00)

Intercosmos 25 Rocket - Pass Details

Date: 24 January 2021
Orbit: 436 x 2983 km, 82.6° (Epoch: 06 March)

Event Time Altitude Azimuth Distance (km) Brightness Sun altitude
Rises 19:36:23 0° 187° (S) 4,094 8.1 -21.8°
Reaches altitude 10° 19:39:38 10° 188° (S) 2,751 7.2 -22.6°
Maximum altitude 19:45:28 73° 272° (W) 712 3.9 -23.9°
Enters shadow 19:46:39 45° 344° (NNW) 852 4.1 -24.2°
